1519106401.17,48585,10.56,72714.5,-14.09,-35.83,-37.15,0,*65
1519106402.41,48586,10.56,72708.8,-14.09,-36.01,-37.15,0,*6F
1519106403.66,48587,10.56,72714.5,-14.09,-36.01,-37.15,0,*6E
1519106404.96,48588,10.56,72712.0,-14.09,-35.95,-37.09,0,*62
1519106406.23,48589,10.56,72712.3,-14.09,-35.95,-37.15,0,*6E
1519106407.53,48590,10.56,72708.3,-14.09,-35.95,-37.09,0,*6B
1519106408.8,48591,10.56,72710.8,-14.05,-35.89,-37.09,0,*6B
1519106410.06,48592,10.56,72710.5,-14.05,-35.89,-37.09,0,*68
1519106411.33,48593,10.56,72706.0,-14.05,-35.89,-37.09,0,*69
1519106412.6,48594,10.56,72708.3,-14.05,-35.89,-37.09,0,*6E
1519106413.87,48595,10.56,72708.5,-14.05,-35.89,-37.09,0,*6F
1519106415.15,48596,10.56,72710.3,-14.09,-35.95,-37.15,0,*60
1519106416.44,48597,10.56,72712.0,-14.09,-35.95,-37.09,0,*6C
1519106417.72,48598,10.56,72710.3,-14.09,-35.95,-37.15,0,*6E
1519106418.96,48599,10.56,72710.5,-14.09,-36.01,-37.15,0,*61
1519106420.23,48600,10.56,72710.5,-14.05,-35.89,-37.09,0,*60
1519106421.48,48601,10.56,72710.8,-14.09,-36.01,-37.15,0,*63
1519106422.75,48602,10.56,72710.8,-14.09,-35.95,-37.15,0,*6E
1519106424.05,48603,10.56,72708.0,-14.05,-35.95,-37.09,0,*6E
1519106425.32,48604,10.56,72710.5,-14.05,-35.89,-37.09,0,*64
1519106426.58,48605,10.56,72708.8,-14.05,-35.89,-37.09,0,*65
1519106427.85,48606,10.56,72706.5,-14.05,-35.89,-37.09,0,*66
1519106429.13,48607,10.56,72708.5,-14.05,-35.95,-37.03,0,*60
1519106430.42,48608,10.56,72708.3,-14.05,-35.95,-37.09,0,*65
1519106431.69,48609,10.56,72714.0,-14.05,-35.89,-37.09,0,*69
1519106432.94,48610,10.56,72708.3,-14.05,-35.89,-37.03,0,*6B
1519106434.18,48611,10.56,72710.3,-14.05,-35.71,-37.03,0,*6D
1519106435.42,48612,10.56,72712.0,-14.05,-35.89,-37.03,0,*69
1519106436.67,48613,10.56,72710.8,-14.05,-35.77,-37.03,0,*69
1519106437.94,48614,10.56,72712.5,-14.05,-35.89,-37.09,0,*65
1519106439.21,48615,10.56,72710.8,-14.05,-35.77,-37.09,0,*65
1519106440.48,48616,10.56,72710.0,-14.05,-35.77,-37.09,0,*66
1519106441.75,48617,10.56,72714.0,-14.05,-35.77,-36.91,0,*67
1519106443.0,48618,10.56,72706.8,-14.05,-35.77,-37.03,0,*62
1519106444.27,48619,10.56,72712.0,-14.05,-35.89,-37.09,0,*68
1519106445.51,48620,10.56,72708.5,-14.05,-35.89,-37.03,0,*68
1519106446.78,48621,10.56,72708.8,-14.05,-35.89,-37.09,0,*63
1519106448.05,48622,10.56,72708.3,-14.05,-35.77,-37.09,0,*61
1519106449.3,48623,10.56,72706.0,-14.05,-35.89,-37.03,0,*6B
1519106450.54,48624,10.56,72710.5,-14.05,-35.77,-37.03,0,*6D
1519106451.81,48625,10.56,72708.5,-14.05,-35.77,-36.91,0,*66
1519106453.08,48626,10.56,72704.5,-14.05,-35.77,-36.91,0,*65
1519106454.35,48627,10.56,72704.8,-14.05,-35.71,-36.91,0,*62
1519106455.61,48628,10.56,72704.5,-14.05,-35.71,-36.91,0,*6D
1519106456.85,48629,10.56,72704.8,-14.05,-35.71,-36.85,0,*69
1519106458.12,48630,10.56,72708.0,-14.05,-35.71,-36.91,0,*64
1519106459.39,48631,10.56,72708.5,-14.05,-35.77,-36.91,0,*63
1519106460.63,48632,10.56,72706.3,-14.05,-35.77,-37.03,0,*6A
1519106461.88,48633,10.56,72706.3,-14.05,-35.77,-37.03,0,*6B
1519106463.13,48634,10.56,72704.8,-14.05,-35.77,-37.03,0,*6C
1519106464.39,48635,10.56,72708.0,-14.05,-35.71,-36.91,0,*61
1519106465.66,48636,10.56,72708.8,-14.05,-35.77,-36.91,0,*64
1519106466.9,48637,10.56,72710.0,-14.05,-35.71,-37.03,0,*69
1519106468.17,48638,10.56,72704.0,-14.05,-35.71,-36.91,0,*6C
1519106469.38,48639,10.56,72710.3,-14.03,-35.71,-37.03,0,*61
1519106470.62,48640,10.56,72708.3,-14.03,-35.71,-36.91,0,*65
1519106471.82,48641,10.56,72706.3,-14.03,-35.71,-36.85,0,*61
1519106473.06,48642,10.56,72708.5,-14.03,-35.71,-36.91,0,*67
1519106474.29,48643,10.56,72706.3,-14.03,-35.71,-36.91,0,*66
1519106475.53,48644,10.56,72710.5,-14.03,-35.71,-36.91,0,*61
1519106476.76,48645,10.56,72704.8,-14.03,-35.59,-36.91,0,*6A
1519106477.97,48646,10.56,72708.8,-14.03,-35.59,-37.03,0,*63
1519106479.21,48647,10.56,72702.8,-14.03,-35.71,-36.91,0,*62
1519106480.49,48648,10.56,72704.0,-14.01,-35.65,-36.91,0,*6A
1519106481.7,48649,10.56,72706.0,-14.03,-35.77,-36.85,0,*6F
1519106482.96,48650,10.56,72704.5,-14.01,-35.65,-36.97,0,*65
1519106484.2,48651,10.56,72706.8,-14.03,-35.71,-36.91,0,*65
1519106485.44,48652,10.56,72710.3,-14.01,-35.71,-36.85,0,*61
1519106486.68,48653,10.56,72706.8,-14.01,-35.71,-36.97,0,*63
1519106487.89,48654,10.56,72708.5,-14.03,-35.77,-37.03,0,*6C
1519106489.13,48655,10.56,72708.8,-14.01,-35.71,-36.97,0,*65
1519106490.37,48656,10.56,72710.0,-14.01,-35.71,-36.85,0,*65
1519106491.61,48657,10.56,72708.5,-14.01,-35.71,-36.97,0,*67
1519106492.88,48658,10.56,72706.8,-14.01,-35.83,-36.97,0,*65
1519106494.12,48659,10.56,72710.0,-14.01,-35.71,-36.97,0,*69
1519106495.35,48660,10.56,72706.8,-14.01,-35.71,-36.85,0,*60
1519106496.57,48661,10.56,72704.0,-14.03,-35.71,-37.03,0,*6C
1519106497.83,48662,10.56,72706.5,-14.01,-35.83,-36.97,0,*6C
1519106499.1,48663,10.56,72706.5,-14.01,-35.83,-36.85,0,*6E
1519106500.34,48664,10.56,72710.0,-14.01,-35.71,-36.85,0,*64
1519106501.6,48665,10.56,72704.8,-14.01,-35.83,-36.97,0,*6B
1519106502.84,48666,10.56,72710.5,-14.01,-35.71,-36.97,0,*65
1519106504.08,48667,10.56,72706.8,-14.01,-35.71,-36.97,0,*64
1519106505.35,48668,10.56,72708.8,-13.99,-35.83,-36.79,0,*60
1519106506.56,48669,10.56,72708.0,-13.99,-35.71,-36.85,0,*6F
1519106507.78,48670,10.56,72704.5,-13.99,-35.71,-36.97,0,*64
1519106509.02,48671,10.56,72704.8,-13.99,-35.71,-36.79,0,*65
1519106510.24,48672,10.56,72708.8,-13.99,-35.71,-36.97,0,*66
1519106511.47,48673,10.56,72706.8,-13.99,-35.65,-36.85,0,*61
1519106512.73,48674,10.56,72704.0,-13.99,-35.65,-36.79,0,*65
1519106513.95,48675,10.56,72706.3,-13.99,-35.71,-36.97,0,*61
1519106515.23,48676,10.56,72700.3,-13.95,-35.65,-36.91,0,*6D
1519106516.5,48677,10.56,72708.3,-13.95,-35.77,-36.91,0,*6F
1519106517.72,48678,10.56,72702.8,-13.99,-35.71,-37.03,0,*60
1519106518.98,48679,10.56,72704.3,-13.99,-35.65,-36.79,0,*68
1519106520.25,48680,10.56,72704.8,-13.95,-35.77,-36.79,0,*61
1519106521.53,48681,10.56,72702.5,-13.95,-35.65,-36.79,0,*63
1519106522.79,48682,10.56,72706.8,-13.95,-35.65,-36.73,0,*6A
1519106524.01,48683,10.56,72706.8,-13.99,-35.71,-36.85,0,*6B
1519106525.29,48684,10.56,72706.0,-13.95,-35.65,-36.79,0,*66
1519106526.58,48685,10.56,72704.0,-13.95,-35.83,-36.91,0,*69
1519106527.8,48686,10.56,72704.8,-13.99,-35.71,-36.85,0,*6E
1519106529.04,48687,10.56,72706.5,-13.95,-35.77,-36.73,0,*6C
1519106530.33,48688,10.56,72700.0,-13.95,-35.83,-36.79,0,*62
1519106531.62,48689,10.56,72702.5,-13.95,-35.65,-36.79,0,*6B
1519106532.88,48690,10.56,72704.0,-13.95,-35.65,-36.73,0,*69
1519106534.12,48691,10.56,72700.3,-13.95,-35.59,-36.73,0,*67
1519106535.36,48692,10.56,72708.0,-13.93,-35.53,-36.73,0,*68
1519106536.58,48693,10.56,72704.3,-13.93,-35.59,-36.67,0,*66
1519106537.84,48694,10.56,72706.0,-13.91,-35.53,-36.73,0,*6C
1519106539.05,48695,10.56,72706.3,-13.93,-35.59,-36.73,0,*65
1519106540.27,48696,10.56,72702.3,-13.93,-35.71,-36.67,0,*69
1519106541.49,48697,10.56,72704.8,-13.93,-35.71,-36.73,0,*6D
1519106542.73,48698,10.56,72708.3,-13.91,-35.71,-36.85,0,*69
1519106543.98,48699,10.56,72710.0,-13.91,-35.77,-36.67,0,*62
1519106545.22,48700,10.56,72704.3,-13.91,-35.59,-36.73,0,*6A
1519106546.43,48701,10.56,72710.0,-13.93,-35.59,-36.73,0,*69
1519106547.65,48702,10.56,72708.3,-13.93,-35.71,-36.73,0,*60
1519106548.87,48703,10.56,72710.0,-13.93,-35.77,-36.85,0,*6E
1519106550.11,48704,10.56,72712.3,-13.91,-35.77,-36.85,0,*6B
1519106551.35,48705,10.56,72710.3,-13.91,-35.77,-36.85,0,*6A
1519106552.56,48706,10.56,72710.3,-13.93,-35.71,-36.85,0,*6D
1519106553.81,48707,10.56,72710.5,-13.93,-35.77,-36.91,0,*6F
1519106555.05,48708,10.56,72704.3,-13.91,-35.77,-36.85,0,*67
1519106556.29,48709,10.56,72704.0,-13.91,-35.71,-36.73,0,*69
1519106557.54,48710,10.56,72704.8,-13.91,-35.59,-36.67,0,*6E
1519106558.78,48711,10.56,72704.8,-13.91,-35.59,-36.67,0,*6F
1519106560.01,48712,10.56,72710.0,-13.89,-35.71,-36.67,0,*6F
1519106561.23,48713,10.56,72706.5,-13.89,-35.59,-36.67,0,*64
1519106562.45,48714,10.56,72702.3,-13.89,-35.71,-36.85,0,*65
1519106563.68,48715,10.56,72708.0,-13.89,-35.77,-36.67,0,*6E
1519106564.92,48716,10.56,72708.0,-13.91,-35.77,-36.85,0,*68
1519106566.17,48717,10.56,72708.5,-13.91,-35.77,-36.85,0,*69
1519106567.41,48718,10.56,72706.8,-13.91,-35.77,-36.85,0,*66
1519106568.64,48719,10.56,72704.0,-13.89,-35.71,-36.67,0,*64
1519106569.86,48720,10.56,72708.3,-13.89,-35.77,-36.73,0,*6D
1519106571.09,48721,10.56,72708.3,-13.89,-35.77,-36.73,0,*6C
1519106572.34,48722,10.56,72704.5,-13.89,-35.83,-36.67,0,*61
1519106573.62,48723,10.56,72704.0,-13.89,-35.95,-36.91,0,*6E
1519106574.86,48724,10.56,72708.5,-13.89,-35.83,-36.85,0,*6B
1519106576.11,48725,10.56,72708.5,-13.89,-35.77,-36.91,0,*64
1519106577.39,48726,10.56,72708.8,-13.89,-35.83,-36.91,0,*6C
1519106578.65,48727,10.56,72706.0,-13.87,-35.77,-36.79,0,*6E
1519106579.9,48728,10.56,72706.3,-13.89,-35.95,-36.85,0,*60
1519106581.14,48729,10.56,72704.3,-13.87,-35.71,-36.85,0,*65
1519106582.4,48730,10.56,72708.0,-13.87,-35.65,-36.67,0,*64
1519106583.65,48731,10.56,72706.5,-13.91,-35.77,-36.73,0,*64
1519106584.9,48732,10.56,72704.5,-13.87,-35.77,-36.67,0,*65
1519106586.17,48733,10.56,72708.8,-13.87,-35.77,-36.79,0,*6B
1519106587.41,48734,10.56,72704.3,-13.89,-35.83,-36.85,0,*6A
1519106588.67,48735,10.56,72706.8,-13.89,-35.95,-36.67,0,*60
1519106589.94,48736,10.56,72708.0,-13.89,-35.95,-36.91,0,*6A
1519106591.21,48737,10.56,72708.8,-13.87,-35.77,-36.79,0,*6F
1519106592.43,48738,10.56,72708.3,-13.89,-35.77,-36.85,0,*6D
1519106593.7,48739,10.56,72704.8,-13.87,-35.77,-36.79,0,*61
1519106594.97,48740,10.56,72704.3,-13.87,-35.77,-36.79,0,*6F
1519106596.21,48741,10.56,72704.5,-13.87,-35.71,-36.67,0,*67
1519106597.48,48742,10.56,72706.3,-13.87,-35.71,-36.61,0,*62
1519106598.74,48743,10.56,72704.3,-13.87,-35.65,-36.67,0,*60
1519106599.98,48744,10.56,72702.8,-13.89,-35.77,-36.67,0,*6A
1519106601.23,48745,10.56,72706.3,-13.89,-35.83,-36.73,0,*65
1519106602.49,48746,10.56,72700.5,-13.87,-35.77,-36.79,0,*69
1519106603.76,48747,10.56,72704.0,-13.87,-35.89,-36.79,0,*69
1519106604.99,48748,10.56,72706.3,-13.89,-35.77,-36.67,0,*66
1519106606.25,48749,10.56,72702.5,-13.87,-35.71,-36.79,0,*60
1519106607.52,48750,10.56,72710.3,-13.87,-35.71,-36.61,0,*61
1519106608.79,48751,10.56,72706.8,-13.89,-35.83,-36.91,0,*6C
1519106610.06,48752,10.56,72712.0,-13.87,-35.71,-36.61,0,*63
1519106611.32,48753,10.56,72708.0,-13.87,-35.71,-36.61,0,*62
1519106612.55,48754,10.56,72704.8,-13.89,-35.77,-36.67,0,*6B
1519106613.8,48755,10.56,72708.0,-13.87,-35.77,-36.67,0,*64
1519106615.05,48756,10.56,72710.5,-13.87,-35.77,-36.67,0,*67
1519106616.3,48757,10.56,72704.5,-13.87,-35.71,-36.67,0,*60
1519106617.54,48758,10.56,72710.0,-13.87,-35.71,-36.67,0,*6F
1519106618.81,48759,10.56,72714.5,-13.87,-35.71,-36.61,0,*68
1519106620.05,48760,10.56,72710.0,-13.85,-35.77,-36.79,0,*6F
1519106621.32,48761,10.56,72710.8,-13.87,-35.71,-36.49,0,*69
1519106622.57,48762,10.56,72710.0,-13.87,-35.71,-36.67,0,*66
1519106623.83,48763,10.56,72708.5,-13.87,-35.71,-36.49,0,*6B
1519106625.07,48764,10.56,72708.5,-13.85,-35.71,-36.61,0,*64
1519106626.32,48765,10.56,72708.0,-13.85,-35.71,-36.49,0,*6F
1519106627.58,48766,10.56,72706.3,-13.85,-35.65,-36.49,0,*69
1519106628.82,48767,10.56,72712.8,-13.85,-35.65,-36.43,0,*62
1519106630.06,48768,10.56,72710.3,-13.85,-35.71,-36.49,0,*62
1519106631.3,48769,10.56,72708.8,-13.85,-35.65,-36.43,0,*6C
1519106632.56,48770,10.56,72708.3,-13.83,-35.65,-36.43,0,*62
1519106633.81,48771,10.56,72708.3,-13.85,-35.71,-36.49,0,*6A
1519106635.05,48772,10.56,72708.3,-13.85,-35.71,-36.61,0,*63
1519106636.3,48773,10.56,72706.5,-13.85,-35.77,-36.61,0,*64
1519106637.54,48774,10.56,72710.5,-13.85,-35.71,-36.49,0,*6F
1519106638.76,48775,10.56,72710.5,-13.85,-35.71,-36.67,0,*62
1519106640.05,48776,10.56,72712.5,-13.87,-35.65,-36.61,0,*60
1519106641.31,48777,10.56,72714.8,-13.85,-35.65,-36.49,0,*69
1519106642.55,48778,10.56,72708.3,-13.85,-35.71,-36.49,0,*63
1519106643.78,48779,10.56,72710.0,-13.85,-35.77,-36.67,0,*68
1519106645.02,48780,10.56,72706.5,-13.85,-35.77,-36.61,0,*68
1519106646.29,48781,10.56,72706.0,-13.85,-35.65,-36.61,0,*6A
1519106647.53,48782,10.56,72706.8,-13.85,-35.65,-36.43,0,*69
1519106648.75,48783,10.56,72710.3,-13.85,-35.71,-36.43,0,*6D
1519106650.01,48784,10.56,72706.5,-13.85,-35.65,-36.49,0,*65
1519106651.25,48785,10.56,72708.5,-13.83,-35.59,-36.43,0,*67
1519106652.53,48786,10.56,72704.8,-13.83,-35.65,-36.37,0,*68
1519106653.8,48787,10.56,72708.0,-13.83,-35.65,-36.43,0,*6A
1519106655.04,48788,10.56,72710.3,-13.85,-35.65,-36.43,0,*63
1519106656.3,48789,10.56,72712.0,-13.83,-35.65,-36.43,0,*64
1519106657.54,48790,10.56,72708.5,-13.83,-35.59,-36.43,0,*63
1519106658.78,48791,10.56,72708.3,-13.85,-35.65,-36.43,0,*6B
1519106660.0,48792,10.56,72708.3,-13.85,-35.59,-36.43,0,*67
1519106661.28,48793,10.56,72708.3,-13.83,-35.65,-36.37,0,*6C
1519106662.52,48794,10.56,72712.8,-13.85,-35.65,-36.43,0,*6E
1519106663.79,48795,10.56,72706.8,-13.83,-35.59,-36.25,0,*66
1519106665.03,48796,10.56,72702.0,-13.85,-35.65,-36.43,0,*6C
1519106666.27,48797,10.56,72708.8,-13.83,-35.59,-36.43,0,*64
1519106667.55,48798,10.56,72710.5,-13.83,-35.65,-36.37,0,*67
1519106668.84,48799,10.56,72704.5,-13.83,-35.65,-36.25,0,*65
1519106670.06,48800,10.56,72704.8,-13.85,-35.71,-36.31,0,*6C
1519106671.34,48801,10.56,72702.5,-13.83,-35.65,-36.37,0,*68
1519106672.58,48802,10.56,72700.0,-13.85,-35.53,-36.43,0,*6B
1519106673.84,48803,10.56,72704.5,-13.83,-35.59,-36.37,0,*65
1519106675.1,48804,10.56,72702.0,-13.83,-35.59,-36.37,0,*62
1519106676.37,48805,10.56,72706.5,-13.83,-35.59,-36.25,0,*60
1519106677.64,48806,10.56,72710.0,-13.85,-35.65,-36.25,0,*6A
1519106678.9,48807,10.56,72706.5,-13.83,-35.59,-36.37,0,*61
1519106680.18,48808,10.56,72706.5,-13.83,-35.65,-36.37,0,*61
1519106681.45,48809,10.56,72708.0,-13.83,-35.65,-36.43,0,*63
1519106682.73,48810,10.56,72706.0,-13.83,-35.65,-36.37,0,*68
1519106683.97,48811,10.56,72708.5,-13.81,-35.59,-36.37,0,*64
1519106685.23,48812,10.56,72708.5,-13.83,-35.59,-36.37,0,*65
1519106686.49,48813,10.56,72710.8,-13.83,-35.59,-36.37,0,*64
1519106687.75,48814,10.56,72714.5,-13.83,-35.47,-36.37,0,*6C
1519106689.02,48815,10.56,72708.3,-13.83,-35.47,-36.37,0,*6D
1519106690.25,48816,10.56,72712.0,-13.81,-35.59,-36.37,0,*63
1519106691.47,48817,10.56,72712.8,-13.81,-35.59,-36.43,0,*61
1519106692.71,48818,10.56,72712.8,-13.81,-35.59,-36.37,0,*6D
1519106693.92,48819,10.56,72710.8,-13.81,-35.59,-36.19,0,*60
1519106695.14,48820,10.56,72710.5,-13.81,-35.47,-36.19,0,*65
1519106696.36,48821,10.56,72710.0,-13.81,-35.47,-36.19,0,*64
1519106697.59,48822,10.56,72708.0,-13.81,-35.41,-36.07,0,*6E
1519106698.88,48823,10.56,72704.0,-13.79,-35.41,-36.13,0,*6D
1519106700.12,48824,10.56,72704.3,-13.81,-35.59,-36.25,0,*61
1519106701.37,48825,10.56,72706.5,-13.81,-35.47,-36.25,0,*6F
1519106702.59,48826,10.56,72710.3,-13.81,-35.47,-36.19,0,*63
1519106703.84,48827,10.56,72704.8,-13.81,-35.47,-36.25,0,*6D
1519106705.11,48828,10.56,72704.5,-13.81,-35.41,-36.25,0,*64
1519106706.38,48829,10.56,72706.5,-13.81,-35.35,-36.25,0,*66
1519106707.62,48830,10.56,72708.0,-13.81,-35.59,-36.25,0,*64
1519106708.89,48831,10.56,72706.3,-13.83,-35.59,-36.25,0,*67
1519106710.14,48832,10.56,72704.5,-13.81,-35.59,-36.25,0,*66
1519106711.37,48833,10.56,72704.0,-13.81,-35.59,-36.37,0,*64
1519106712.62,48834,10.56,72706.8,-13.81,-35.59,-36.25,0,*60
1519106713.89,48835,10.56,72706.5,-13.81,-35.65,-36.25,0,*6E
1519106715.14,48836,10.56,72708.3,-13.79,-35.53,-36.19,0,*60
1519106716.36,48837,10.56,72710.5,-13.81,-35.47,-36.19,0,*63
1519106717.62,48838,10.56,72708.5,-13.79,-35.41,-36.19,0,*6D
1519106718.86,48839,10.56,72706.5,-13.81,-35.59,-36.25,0,*6D
1519106720.11,48840,10.56,72708.0,-13.81,-35.59,-36.25,0,*63
1519106721.33,48841,10.56,72704.5,-13.81,-35.47,-36.19,0,*62
1519106722.56,48842,10.56,72704.5,-13.81,-35.41,-36.19,0,*67
1519106723.83,48843,10.56,72704.0,-13.81,-35.41,-36.25,0,*69
1519106725.05,48844,10.56,72710.3,-13.81,-35.47,-36.19,0,*67
1519106726.3,48845,10.56,72708.3,-13.81,-35.47,-36.25,0,*69
1519106727.53,48846,10.56,72704.3,-13.81,-35.41,-36.19,0,*63
1519106728.77,48847,10.56,72708.3,-13.81,-35.41,-36.07,0,*6D
1519106730.03,48848,10.56,72708.0,-13.79,-35.35,-36.19,0,*69
1519106731.25,48849,10.56,72710.8,-13.81,-35.47,-36.07,0,*65
1519106732.52,48850,10.56,72706.3,-13.81,-35.41,-36.25,0,*6B
1519106733.73,48851,10.56,72708.0,-13.81,-35.47,-36.19,0,*63
1519106735.02,48852,10.56,72708.0,-13.79,-35.53,-36.13,0,*68
1519106736.3,48853,10.56,72704.5,-13.79,-35.41,-36.13,0,*6A
1519106737.56,48854,10.56,72706.8,-13.79,-35.53,-36.19,0,*64
1519106738.82,48855,10.56,72710.5,-13.81,-35.65,-36.37,0,*6B
1519106740.08,48856,10.56,72706.8,-13.79,-35.53,-36.19,0,*66
1519106741.36,48857,10.56,72710.5,-13.79,-35.53,-36.13,0,*6D
1519106742.61,48858,10.56,72708.0,-13.81,-35.47,-36.25,0,*65
1519106743.85,48859,10.56,72710.5,-13.81,-35.59,-36.25,0,*6B
1519106745.07,48860,10.56,72708.5,-13.81,-35.47,-36.19,0,*61
1519106746.31,48861,10.56,72706.0,-13.81,-35.41,-36.19,0,*66
1519106747.52,48862,10.56,72704.0,-13.81,-35.47,-36.19,0,*63
1519106748.79,48863,10.56,72704.8,-13.81,-35.41,-36.25,0,*6B
1519106750.01,48864,10.56,72706.0,-13.81,-35.47,-36.19,0,*65
1519106751.25,48865,10.56,72706.5,-13.81,-35.41,-36.19,0,*62
1519106752.48,48866,10.56,72706.3,-13.81,-35.41,-36.07,0,*6E
1519106753.72,48867,10.56,72708.5,-13.81,-35.41,-36.07,0,*6F
1519106754.96,48868,10.56,72704.8,-13.81,-35.41,-36.19,0,*6F
1519106756.19,48869,10.56,72708.3,-13.81,-35.41,-36.19,0,*6E
1519106757.43,48870,10.56,72702.8,-13.81,-35.41,-36.19,0,*66
1519106758.67,48871,10.56,72708.5,-13.81,-35.41,-36.07,0,*68
1519106759.97,48872,10.56,72706.3,-13.79,-35.35,-35.95,0,*67
1519106761.2,48873,10.56,72702.8,-13.81,-35.41,-36.07,0,*6A
1519106762.44,48874,10.56,72704.3,-13.81,-35.41,-36.19,0,*62
1519106763.71,48875,10.56,72704.8,-13.79,-35.35,-36.01,0,*6E
1519106764.95,48876,10.56,72704.8,-13.81,-35.41,-36.07,0,*6F
1519106766.19,48877,10.56,72708.0,-13.81,-35.41,-36.07,0,*6E
1519106767.4,48878,10.56,72706.8,-13.81,-35.47,-36.07,0,*67
1519106768.65,48879,10.56,72704.8,-13.81,-35.35,-36.01,0,*65
1519106769.92,48880,10.56,72708.0,-13.79,-35.23,-36.01,0,*63
1519106771.14,48881,10.56,72708.0,-13.81,-35.29,-36.07,0,*69
1519106772.36,48882,10.56,72708.3,-13.81,-35.29,-36.07,0,*6A
1519106773.58,48883,10.56,72712.8,-13.81,-35.29,-36.07,0,*6B
1519106774.83,48884,10.56,72706.0,-13.81,-35.23,-36.01,0,*60
1519106776.07,48885,10.56,72710.3,-13.81,-35.41,-36.19,0,*6C
1519106777.36,48886,10.56,72710.0,-13.79,-35.35,-36.13,0,*61
1519106778.6,48887,10.56,72704.5,-13.81,-35.41,-36.07,0,*61
1519106779.83,48888,10.56,72706.3,-13.81,-35.41,-36.07,0,*6E
1519106781.09,48889,10.56,72706.5,-13.81,-35.23,-36.01,0,*6D
1519106782.31,48890,10.56,72706.0,-13.81,-35.29,-36.01,0,*6F
1519106783.54,48891,10.56,72706.0,-13.81,-35.29,-36.01,0,*6E
1519106784.84,48892,10.56,72710.5,-13.79,-35.23,-35.95,0,*6E
1519106786.14,48893,10.56,72706.0,-13.79,-35.23,-35.83,0,*68
1519106787.36,48894,10.56,72708.5,-13.81,-35.29,-36.07,0,*6D
1519106788.58,48895,10.56,72704.0,-13.81,-35.29,-36.07,0,*6C
1519106789.8,48896,10.56,72710.0,-13.81,-35.29,-36.07,0,*6F
1519106791.02,48897,10.56,72706.8,-13.81,-35.29,-36.07,0,*6E
1519106792.24,48898,10.56,72710.5,-13.81,-35.29,-36.07,0,*61
1519106793.47,48899,10.56,72708.3,-13.81,-35.29,-36.01,0,*66
1519106794.69,48900,10.56,72708.5,-13.81,-35.29,-36.07,0,*61
1519106795.91,48901,10.56,72708.5,-13.81,-35.29,-36.01,0,*66
1519106797.17,48902,10.56,72710.8,-13.81,-35.23,-36.01,0,*6F
1519106798.39,48903,10.56,72712.0,-13.81,-35.29,-36.01,0,*64
1519106799.62,48904,10.56,72708.8,-13.81,-35.29,-36.01,0,*63
1519106800.92,48905,10.56,72710.0,-13.79,-35.23,-35.95,0,*61
1519106802.15,48906,10.56,72714.8,-13.81,-35.29,-36.01,0,*61
1519106803.41,48907,10.56,72710.3,-13.81,-35.23,-35.89,0,*69
1519106804.68,48908,10.56,72712.5,-13.81,-35.23,-35.83,0,*6C
1519106805.96,48909,10.56,72710.0,-13.79,-35.07,-35.77,0,*67
1519106807.23,48910,10.56,72710.8,-13.81,-35.23,-35.83,0,*65
1519106808.49,48911,10.56,72706.5,-13.81,-35.23,-35.89,0,*6E
1519106809.76,48912,10.56,72708.3,-13.81,-35.23,-35.83,0,*67
1519106811.03,48913,10.56,72710.0,-13.81,-35.23,-35.83,0,*66
1519106812.33,48914,10.56,72708.8,-13.79,-35.23,-35.83,0,*66
1519106813.58,48915,10.56,72706.8,-13.81,-35.23,-35.89,0,*6A
1519106814.85,48916,10.56,72704.5,-13.79,-35.17,-35.83,0,*63
1519106816.13,48917,10.56,72706.8,-13.81,-35.23,-35.83,0,*62
1519106817.38,48918,10.56,72706.5,-13.81,-35.23,-35.89,0,*67
1519106818.66,48919,10.56,72704.5,-13.83,-35.23,-35.89,0,*64
1519106819.91,48920,10.56,72706.5,-13.81,-35.29,-35.83,0,*6C
1519106821.16,48921,10.56,72706.3,-13.81,-35.13,-35.83,0,*64
1519106822.4,48922,10.56,72704.8,-13.81,-35.13,-35.83,0,*67
1519106823.63,48923,10.56,72704.5,-13.81,-35.29,-35.89,0,*65
1519106824.89,48924,10.56,72710.3,-13.81,-35.23,-35.89,0,*68
1519106826.13,48925,10.56,72712.0,-13.81,-35.13,-35.83,0,*60
1519106827.41,48926,10.56,72704.3,-13.79,-35.07,-35.77,0,*6A
1519106828.69,48927,10.56,72706.8,-13.81,-35.07,-35.83,0,*67
1519106829.92,48928,10.56,72710.3,-13.81,-35.13,-35.89,0,*67
1519106831.17,48929,10.56,72706.0,-13.81,-35.29,-35.83,0,*65
1519106832.45,48930,10.56,72704.8,-13.79,-35.07,-35.77,0,*6D
1519106833.7,48931,10.56,72706.0,-13.79,-35.01,-35.77,0,*6A
1519106835.01,48932,10.56,72704.5,-13.79,-35.07,-35.83,0,*64
1519106836.25,48933,10.56,72710.0,-13.81,-35.13,-35.83,0,*67
1519106837.5,48934,10.56,72702.3,-13.81,-35.13,-35.83,0,*60
1519106838.78,48935,10.56,72710.3,-13.81,-35.07,-35.83,0,*64
1519106840.05,48936,10.56,72704.8,-13.79,-35.01,-35.65,0,*6E
1519106841.3,48937,10.56,72706.8,-13.81,-35.07,-35.71,0,*6B
1519106842.52,48938,10.56,72704.5,-13.81,-35.13,-35.71,0,*61
1519106843.79,48939,10.56,72708.3,-13.81,-35.07,-35.83,0,*68
1519106845.07,48940,10.56,72708.8,-13.79,-35.01,-35.65,0,*6F
1519106846.34,48941,10.56,72708.3,-13.79,-35.01,-35.65,0,*6E
1519106847.61,48942,10.56,72704.3,-13.79,-35.01,-35.65,0,*6D
1519106848.86,48943,10.56,72708.3,-13.81,-34.95,-35.71,0,*62
1519106850.12,48944,10.56,72710.0,-13.79,-34.89,-35.65,0,*6A
1519106851.37,48945,10.56,72704.8,-13.81,-34.95,-35.71,0,*64
1519106852.59,48946,10.56,72706.5,-13.81,-34.89,-35.71,0,*6A
1519106853.85,48947,10.56,72710.0,-13.79,-34.89,-35.65,0,*69
1519106855.15,48948,10.56,72706.3,-13.79,-35.07,-35.83,0,*69
1519106856.4,48949,10.56,72708.8,-13.79,-35.17,-35.77,0,*62
1519106857.68,48950,10.56,72708.8,-13.79,-35.07,-35.77,0,*6B
1519106858.98,48951,10.56,72710.8,-13.79,-35.07,-35.83,0,*61
1519106860.23,48952,10.56,72704.8,-13.81,-35.13,-35.83,0,*60
1519106861.51,48953,10.56,72700.0,-13.81,-35.07,-35.83,0,*64
1519106862.78,48954,10.56,72706.8,-13.79,-35.01,-35.65,0,*6A
1519106864.03,48955,10.56,72704.8,-13.81,-34.95,-35.71,0,*65
1519106865.28,48956,10.56,72700.5,-13.81,-34.95,-35.71,0,*66
1519106866.53,48957,10.56,72704.0,-13.81,-34.95,-35.71,0,*67
1519106867.79,48958,10.56,72704.5,-13.79,-34.89,-35.65,0,*67
1519106869.06,48959,10.56,72700.3,-13.79,-34.83,-35.59,0,*63
1519106870.3,48960,10.56,72706.3,-13.81,-34.89,-35.65,0,*6B
1519106871.55,48961,10.56,72702.0,-13.81,-34.77,-35.65,0,*6B
1519106872.79,48962,10.56,72702.5,-13.79,-34.89,-35.59,0,*61
1519106874.06,48963,10.56,72700.3,-13.79,-34.83,-35.59,0,*6A
1519106875.31,48964,10.56,72700.3,-13.79,-34.71,-35.59,0,*60
1519106876.56,48965,10.56,72702.5,-13.79,-34.71,-35.59,0,*61
1519106877.86,48966,10.56,72702.5,-13.79,-34.65,-35.53,0,*6D
1519106879.11,48967,10.56,72700.8,-13.79,-34.71,-35.59,0,*63
1519106880.41,48968,10.56,72704.8,-13.79,-34.65,-35.65,0,*66
1519106881.66,48969,10.56,72704.8,-13.79,-34.71,-35.59,0,*6D
1519106882.91,48970,10.56,72710.3,-13.81,-34.83,-35.59,0,*6F
1519106884.16,48971,10.56,72706.0,-13.81,-34.95,-35.71,0,*63
1519106885.4,48972,10.56,72704.0,-13.79,-34.89,-35.59,0,*60
1519106886.69,48973,10.56,72708.8,-13.79,-34.83,-35.65,0,*64
1519106887.98,48974,10.56,72704.0,-13.79,-34.83,-35.65,0,*63
1519106889.28,48975,10.56,72704.3,-13.79,-34.83,-35.65,0,*62
1519106890.5,48976,10.56,72706.8,-13.77,-34.71,-35.59,0,*6D
1519106891.77,48977,10.56,72704.5,-13.77,-34.83,-35.65,0,*6E
1519106893.02,48978,10.56,72706.8,-13.81,-34.83,-35.59,0,*67